Granada, Spain

7:45 AM CEST on April 26, 2017 (GMT +0200)
Granada

Weather History for LEGR - October, 2012

Change the Weather History Date:

Sunday, October 21, 2012

  Actual Average Record
Temperature  
Mean Temperature 58 °F -  
Max Temperature 65 °F 64 °F 90 °F (2014)
Min Temperature 51 °F 41 °F 37 °F (1998)
Degree Days  
Heating Degree Days 7    
Growing Degree Days 8 (Base 50)    
Moisture  
Dew Point 50 °F    
Average Humidity 74    
Maximum Humidity 94    
Minimum Humidity 44    
Precipitation  
Precipitation 0.12 in - - ()
Sea Level Pressure  
Sea Level Pressure 30.01 in    
Wind  
Wind Speed 4 mph ()    
Max Wind Speed 14 mph    
Max Gust Speed -    
Visibility 6.3 miles    
Events Rain    
Averages and records for this station are not official NWS values.
T = Trace of Precipitation, MM = Missing Value Source: Averaged Metar Reports

Daily Weather History Graph

Daily Weather History Graph

Search for Another Location

Airport or City:

Trip Planner

Search our weather history database for the weather conditions in past years. The results will help you decide how hot, cold, wet, or windy it might be!

Date:

Astronomy

Oct. 21, 2012 Rise Set
Actual Time 8:28 AM CEST 7:29 PM CEST
Civil Twilight 8:02 AM CEST 7:56 PM CEST
Nautical Twilight 7:32 AM CEST 8:26 PM CEST
Astronomical Twilight 7:01 AM CEST 8:56 PM CEST
Moon 2:36 PM CEST (10/21) 12:04 AM CEST (10/21)
Length of Visible Light 11h 53m
Length of Day
11h 01m
Waxing Crescent, 42% of the Moon is Illuminated
Oct 21
Waxing Crescent
Oct 22
First Quarter
Oct 29
Full
Nov 7
Last Quarter
Nov 13
New

Hourly Weather History & Observations

Time (CEST) Temp. Dew Point Humidity Pressure Visibility Wind Dir Wind Speed Gust Speed Precip Events Conditions
2:00 AM 53 °F 51 °F 91% 29.94 in 4 mi NW 1.2 mph - - Rain Rain
6:00 AM 53.6 °F 50.0 °F 88% 29.95 in 6.2 mi SW 3.5 mph - N/A   Mostly Cloudy
7:00 AM 51.8 °F 50.0 °F 94% 29.95 in 6.2 mi Variable 2.3 mph - N/A   Scattered Clouds
7:30 AM 51.8 °F 50.0 °F 94% 29.95 in 6.2 mi Variable 2.3 mph - N/A   Scattered Clouds
8:00 AM 52 °F 48 °F 83% 29.96 in 9 mi SW 4.6 mph - -   Mostly Cloudy
8:00 AM 51.8 °F 50.0 °F 94% 29.95 in 6.2 mi SW 3.5 mph - N/A   Scattered Clouds
8:30 AM 53.6 °F 50.0 °F 88% 29.95 in 6.2 mi SW 5.8 mph - N/A   Scattered Clouds
9:00 AM 53.6 °F 50.0 °F 88% 29.98 in 6.2 mi SW 5.8 mph - N/A   Scattered Clouds
9:30 AM 53.6 °F 50.0 °F 88% 29.98 in 6.2 mi Variable 2.3 mph - N/A   Scattered Clouds
10:30 AM 55.4 °F 50.0 °F 82% 30.01 in 6.2 mi Variable 1.2 mph - N/A   Partly Cloudy
11:00 AM 55.4 °F 50.0 °F 82% 30.01 in 6.2 mi Variable 1.2 mph - N/A   Partly Cloudy
11:30 AM 57.2 °F 48.2 °F 72% 30.01 in 6.2 mi Calm Calm - N/A   Partly Cloudy
12:30 PM 59.0 °F 48.2 °F 67% 30.01 in 6.2 mi Variable 1.2 mph - N/A   Scattered Clouds
1:00 PM 59.0 °F 50.0 °F 72% 30.01 in 6.2 mi Variable 1.2 mph - N/A   Scattered Clouds
1:30 PM 62.6 °F 48.2 °F 59% 30.01 in 6.2 mi Variable 2.3 mph - N/A   Scattered Clouds
2:00 PM 63 °F 46 °F 44% 29.98 in 12 mi WNW 6.9 mph - -   Partly Cloudy
2:00 PM 62.6 °F 44.6 °F 52% 30.01 in 6.2 mi WNW 5.8 mph - N/A   Scattered Clouds
2:30 PM 64.4 °F 46.4 °F 52% 30.01 in 6.2 mi Variable 1.2 mph - N/A   Scattered Clouds
3:00 PM 64.4 °F 48.2 °F 56% 30.01 in 6.2 mi Variable 4.6 mph - N/A   Scattered Clouds
3:30 PM 64.4 °F 46.4 °F 52% 30.01 in 6.2 mi West 11.5 mph - N/A   Scattered Clouds
4:00 PM 64.4 °F 44.6 °F 49% 30.01 in 6.2 mi West 8.1 mph - N/A   Scattered Clouds
4:30 PM 64.4 °F 46.4 °F 52% 30.01 in 6.2 mi West 12.7 mph - N/A   Scattered Clouds
5:00 PM 64.4 °F 44.6 °F 49% 30.01 in 6.2 mi West 13.8 mph - N/A   Scattered Clouds
5:30 PM 62.6 °F 44.6 °F 52% 30.01 in 6.2 mi West 10.4 mph - N/A   Scattered Clouds
6:00 PM 62.6 °F 46.4 °F 55% 30.01 in 6.2 mi West 8.1 mph - N/A   Mostly Cloudy
6:30 PM 62.6 °F 50.0 °F 63% 30.04 in 6.2 mi West 9.2 mph - N/A   Scattered Clouds
7:00 PM 60.8 °F 51.8 °F 72% 30.04 in 6.2 mi West 10.4 mph - N/A   Scattered Clouds
7:30 PM 59.0 °F 51.8 °F 77% 30.04 in 6.2 mi West 9.2 mph - N/A   Mostly Cloudy
8:00 PM 58 °F 52 °F 73% 30.04 in 5 mi West 9.2 mph - - Rain Light Rain Showers
8:00 PM 59.0 °F 53.6 °F 82% 30.06 in 6.2 mi West 8.1 mph - N/A   Mostly Cloudy
8:30 PM 57.2 °F 53.6 °F 88% 30.06 in 6.2 mi West 5.8 mph - N/A   Mostly Cloudy
9:00 PM 57.2 °F 53.6 °F 88% 30.06 in 6.2 mi Variable 2.3 mph - N/A   Mostly Cloudy
9:30 PM 57.2 °F 53.6 °F 88% 30.06 in 6.2 mi West 3.5 mph - N/A   Mostly Cloudy
10:00 PM 57.2 °F 53.6 °F 88% 30.09 in 6.2 mi West 3.5 mph - N/A   Mostly Cloudy
10:30 PM 57.2 °F 55.4 °F 94% 30.09 in 6.2 mi Calm Calm - N/A   Mostly Cloudy
11:00 PM 57.2 °F 55.4 °F 94% 30.09 in 6.2 mi Calm Calm - N/A   Scattered Clouds